Reno - Stead, NV

9:45 AM PDT on April 28, 2017 (GMT -0700)
Reno - Stead

Weather History for KRTS - January, 2013

Change the Weather History Date:

Tuesday, January 29, 2013

  Actual Average (KRNO) Record (KRNO)
Temperature  
Mean Temperature 38 °F -  
Max Temperature 44 °F 46 °F 65 °F (2014)
Min Temperature 32 °F 21 °F -7 °F (1949)
Degree Days  
Heating Degree Days 27    
Moisture  
Dew Point 26 °F    
Average Humidity 65    
Maximum Humidity 87    
Minimum Humidity 53    
Precipitation  
Precipitation 0.00 in - - ()
Sea Level Pressure  
Sea Level Pressure 30.27 in    
Wind  
Wind Speed 10 mph (NNW)    
Max Wind Speed 24 mph    
Max Gust Speed 30 mph    
Visibility 10 miles    
Events      
Averages and records for this station are not official NWS values.
T = Trace of Precipitation, MM = Missing Value Source: NWS Daily Summary

Daily Weather History Graph

Daily Weather History Graph

Search for Another Location

Airport or City:

Trip Planner

Search our weather history database for the weather conditions in past years. The results will help you decide how hot, cold, wet, or windy it might be!

Date:

Astronomy

Jan. 29, 2013 Rise Set
Actual Time 7:09 AM PST 5:16 PM PST
Civil Twilight 6:41 AM PST 5:44 PM PST
Nautical Twilight 6:08 AM PST 6:17 PM PST
Astronomical Twilight 5:36 AM PST 6:49 PM PST
Moon 8:16 PM PST (1/29) 8:09 AM PST (1/29)
Length of Visible Light 11h 03m
Length of Day
10h 06m
Waning Gibbous, 93% of the Moon is Illuminated
Jan 29
Waning Gibbous
Feb 3
Last Quarter
Feb 9
New
Feb 17
First Quarter
Feb 25
Full

Hourly Weather History & Observations

Time (PST) Temp. Windchill Dew Point Humidity Pressure Visibility Wind Dir Wind Speed Gust Speed Precip Events Conditions
12:15 AM 33.8 °F 25.8 °F 21.2 °F 60% 30.15 in 10.0 mi WNW 10.4 mph - N/A   Overcast
12:35 AM 32.0 °F 26.4 °F 23.0 °F 69% 30.15 in 10.0 mi WNW 5.8 mph - N/A   Mostly Cloudy
12:55 AM 32.0 °F 24.2 °F 23.0 °F 69% 30.15 in 10.0 mi West 9.2 mph - N/A   Mostly Cloudy
1:15 AM 33.8 °F 24.8 °F 23.0 °F 65% 30.15 in 10.0 mi WNW 12.7 mph - N/A   Overcast
1:35 AM 33.8 °F 26.4 °F 23.0 °F 65% 30.15 in 10.0 mi WNW 9.2 mph - N/A   Overcast
1:55 AM 33.8 °F 24.3 °F 21.2 °F 60% 30.15 in 10.0 mi WNW 13.8 mph - N/A   Overcast
2:15 AM 33.8 °F 25.8 °F 21.2 °F 60% 30.15 in 10.0 mi NW 10.4 mph - N/A   Overcast
2:35 AM 33.8 °F 25.3 °F 23.0 °F 65% 30.15 in 10.0 mi NW 11.5 mph - N/A   Overcast
2:55 AM 33.8 °F 24.8 °F 21.2 °F 60% 30.15 in 10.0 mi NW 12.7 mph - N/A   Overcast
3:15 AM 33.8 °F 24.3 °F 21.2 °F 60% 30.15 in 10.0 mi NW 13.8 mph 20.7 mph N/A   Overcast
3:35 AM 33.8 °F 24.3 °F 19.4 °F 56% 30.15 in 10.0 mi NW 13.8 mph - N/A   Overcast
3:55 AM 33.8 °F 24.3 °F 21.2 °F 60% 30.15 in 10.0 mi NNW 13.8 mph - N/A   Overcast
4:15 AM 33.8 °F 24.3 °F 21.2 °F 60% 30.15 in 10.0 mi NW 13.8 mph - N/A   Overcast
4:35 AM 33.8 °F 24.8 °F 23.0 °F 65% 30.15 in 10.0 mi NW 12.7 mph - N/A   Mostly Cloudy
4:55 AM 35.6 °F 26.2 °F 23.0 °F 60% 30.15 in 10.0 mi WNW 15.0 mph 18.4 mph N/A   Mostly Cloudy
5:15 AM 33.8 °F 23.9 °F 23.0 °F 65% 30.16 in 10.0 mi NW 15.0 mph - N/A   Mostly Cloudy
5:35 AM 33.8 °F 26.4 °F 23.0 °F 65% 30.17 in 10.0 mi NW 9.2 mph - N/A   Mostly Cloudy
5:55 AM 33.8 °F 27.7 °F 23.0 °F 65% 30.18 in 10.0 mi NW 6.9 mph - N/A   Mostly Cloudy
6:15 AM 32.0 °F 24.2 °F 23.0 °F 69% 30.18 in 10.0 mi WNW 9.2 mph - N/A   Overcast
6:35 AM 33.8 °F 25.8 °F 23.0 °F 65% 30.19 in 10.0 mi WNW 10.4 mph - N/A   Overcast
6:55 AM 33.8 °F 27.7 °F 24.8 °F 70% 30.20 in 10.0 mi WNW 6.9 mph - N/A   Overcast
7:15 AM 35.6 °F 30.7 °F 24.8 °F 65% 30.20 in 10.0 mi NW 5.8 mph - N/A   Mostly Cloudy
7:35 AM 35.6 °F 32.8 °F 24.8 °F 65% 30.21 in 10.0 mi WNW 3.5 mph - N/A   Mostly Cloudy
7:55 AM 35.6 °F 32.8 °F 24.8 °F 65% 30.22 in 10.0 mi NW 3.5 mph - N/A   Scattered Clouds
8:15 AM 35.6 °F - 24.8 °F 65% 30.23 in 10.0 mi Calm Calm - N/A   Mostly Cloudy
8:35 AM 35.6 °F 30.7 °F 24.8 °F 65% 30.24 in 10.0 mi ESE 5.8 mph - N/A   Mostly Cloudy
8:55 AM 37.4 °F - 24.8 °F 60% 30.24 in 10.0 mi Calm Calm - N/A   Mostly Cloudy
9:15 AM 39.2 °F 34.2 °F 24.8 °F 56% 30.25 in 10.0 mi North 6.9 mph - N/A   Mostly Cloudy
9:35 AM 39.2 °F 32.0 °F 24.8 °F 56% 30.26 in 10.0 mi WNW 11.5 mph - N/A   Mostly Cloudy
9:55 AM 39.2 °F 32.0 °F 26.6 °F 61% 30.26 in 10.0 mi NW 11.5 mph 20.7 mph N/A   Overcast
10:15 AM 41.0 °F 34.7 °F 26.6 °F 57% 30.27 in 10.0 mi NW 10.4 mph 25.3 mph N/A   Mostly Cloudy
10:35 AM 41.0 °F 33.9 °F 26.6 °F 57% 30.28 in 10.0 mi WNW 12.7 mph 26.5 mph N/A   Overcast
10:55 AM 41.0 °F 34.3 °F 26.6 °F 57% 30.29 in 10.0 mi North 11.5 mph 19.6 mph N/A   Overcast
11:15 AM 41.0 °F 32.5 °F 26.6 °F 57% 30.28 in 10.0 mi NW 17.3 mph 23.0 mph N/A   Scattered Clouds
11:35 AM 44.6 °F 36.1 °F 28.4 °F 53% 30.28 in 10.0 mi NNW 21.9 mph - N/A   Scattered Clouds
11:55 AM 41.0 °F 31.6 °F 28.4 °F 61% 30.28 in 10.0 mi North 20.7 mph 24.2 mph N/A   Partly Cloudy
12:15 PM 42.8 °F 33.5 °F 28.4 °F 57% 30.28 in 10.0 mi North 23.0 mph 28.8 mph N/A   Scattered Clouds
12:35 PM 41.0 °F 32.8 °F 28.4 °F 61% 30.28 in 10.0 mi NNW 16.1 mph 25.3 mph N/A   Mostly Cloudy
12:45 PM 42.8 °F 34.0 °F 28.4 °F 57% 30.28 in 10.0 mi North 20.7 mph 29.9 mph N/A   Mostly Cloudy
1:05 PM 41.0 °F 31.9 °F 28.4 °F 61% 30.28 in 10.0 mi NNW 19.6 mph 26.5 mph N/A   Partly Cloudy
1:25 PM 44.6 °F 38.1 °F 28.4 °F 53% 30.28 in 10.0 mi NNW 13.8 mph 23.0 mph N/A   Scattered Clouds
1:50 PM 44.6 °F 38.1 °F 28.4 °F 53% 30.29 in 10.0 mi NNW 13.8 mph 24.2 mph N/A   Scattered Clouds
2:05 PM 44.6 °F 36.6 °F 28.4 °F 53% 30.30 in 10.0 mi North 19.6 mph 25.3 mph N/A   Scattered Clouds
2:30 PM 44.6 °F 37.4 °F 28.4 °F 53% 30.29 in 10.0 mi NNW 16.1 mph 20.7 mph N/A   Mostly Cloudy
2:45 PM 44.6 °F 37.8 °F 28.4 °F 53% 30.31 in 10.0 mi NNW 15.0 mph 19.6 mph N/A   Overcast
3:10 PM 44.6 °F 40.2 °F 28.4 °F 53% 30.32 in 10.0 mi NNE 8.1 mph - N/A   Overcast
3:25 PM 42.8 °F 34.8 °F 28.4 °F 57% 30.32 in 10.0 mi NNE 17.3 mph 23.0 mph N/A   Overcast
3:45 PM 42.8 °F 34.5 °F 28.4 °F 57% 30.31 in 10.0 mi North 18.4 mph 26.5 mph N/A   Partly Cloudy
4:05 PM 41.0 °F 30.9 °F 28.4 °F 61% 30.31 in 10.0 mi NNW 24.2 mph 27.6 mph N/A   Clear
4:30 PM 39.2 °F 30.5 °F 28.4 °F 65% 30.34 in 10.0 mi North 16.1 mph 27.6 mph N/A   Clear
4:55 PM 39.2 °F 32.5 °F 28.4 °F 65% 30.34 in 10.0 mi North 10.4 mph - N/A   Clear
5:15 PM 37.4 °F 32.1 °F 28.4 °F 70% 30.33 in 10.0 mi NW 6.9 mph - N/A   Clear
5:25 PM 37.4 °F 33.8 °F 28.4 °F 70% 30.34 in 10.0 mi WNW 4.6 mph - N/A   Clear
5:45 PM 37.4 °F 32.8 °F 28.4 °F 70% 30.36 in 10.0 mi West 5.8 mph - N/A   Mostly Cloudy
6:10 PM 39.2 °F 34.2 °F 28.4 °F 65% 30.36 in 10.0 mi NNW 6.9 mph 16.1 mph N/A   Mostly Cloudy
6:25 PM 37.4 °F 29.3 °F 28.4 °F 70% 30.36 in 10.0 mi NW 12.7 mph 16.1 mph N/A   Mostly Cloudy
6:45 PM 37.4 °F 31.4 °F 28.4 °F 70% 30.38 in 10.0 mi North 8.1 mph - N/A   Partly Cloudy
7:05 PM 37.4 °F 30.8 °F 28.4 °F 70% 30.38 in 10.0 mi North 9.2 mph - N/A   Mostly Cloudy
7:25 PM 37.4 °F 33.8 °F 28.4 °F 70% 30.39 in 10.0 mi North 4.6 mph - N/A   Mostly Cloudy
7:45 PM 37.4 °F 32.8 °F 28.4 °F 70% 30.39 in 10.0 mi NNW 5.8 mph - N/A   Overcast
8:05 PM 35.6 °F 31.7 °F 28.4 °F 75% 30.39 in 10.0 mi North 4.6 mph - N/A   Mostly Cloudy
8:25 PM 35.6 °F - 28.4 °F 75% 30.39 in 10.0 mi Calm Calm - N/A   Scattered Clouds
8:50 PM 32.0 °F 27.5 °F 28.4 °F 87% 30.39 in 10.0 mi NNW 4.6 mph - N/A   Clear
9:15 PM 32.0 °F - 28.4 °F 87% 30.40 in 10.0 mi North - - N/A   Mostly Cloudy
9:25 PM 32.0 °F 27.5 °F 28.4 °F 87% 30.40 in 10.0 mi North 4.6 mph - N/A   Mostly Cloudy
9:45 PM 35.6 °F 32.8 °F 28.4 °F 75% 30.41 in 10.0 mi NNE 3.5 mph - N/A   Overcast
10:05 PM 35.6 °F - 28.4 °F 75% 30.40 in 10.0 mi Calm Calm - N/A   Overcast
10:25 PM 32.0 °F 28.7 °F 28.4 °F 87% 30.40 in 10.0 mi North 3.5 mph - N/A   Overcast
10:45 PM 32.0 °F 25.6 °F 28.4 °F 87% 30.39 in 10.0 mi North 6.9 mph - N/A   Overcast
11:15 PM 35.6 °F 31.7 °F 28.4 °F 75% 30.40 in 10.0 mi SSE 4.6 mph - N/A   Mostly Cloudy
11:30 PM 32.0 °F 26.4 °F 28.4 °F 87% 30.41 in 10.0 mi South 5.8 mph - N/A   Overcast
11:45 PM 35.6 °F - 28.4 °F 75% 30.41 in 10.0 mi Calm Calm - N/A   Overcast